MUC1158 EDNX-LOWS

Flight info

Callsign MUC1158
Flight time N/A
Altitude 2500
Route VFR
Aircraft C172/L-VGD/A

Departure

Time N/A
Airport Schleissheim Airfield (EDNX)

Arrival

Time 2026-05-07 08:43
Airport Salzburg Airport (LOWS)
Time Latitude Longitude Altitude Speed Heading
2026-05-07 08:12 47.83394 11.43647 3225 ft 78 kts 282°
2026-05-07 08:13 47.83534 11.42829 3509 ft 95 kts 283°
2026-05-07 08:13 47.83711 11.41728 3521 ft 117 kts 282°
2026-05-07 08:13 47.83843 11.40908 3518 ft 123 kts 282°
2026-05-07 08:13 47.84043 11.39670 3515 ft 125 kts 283°
2026-05-07 08:14 47.84246 11.38419 3509 ft 123 kts 281°
2026-05-07 08:14 47.84444 11.37203 3512 ft 119 kts 280°
2026-05-07 08:14 47.84639 11.36023 3511 ft 116 kts 281°
2026-05-07 08:14 47.84986 11.34962 3503 ft 120 kts 310°
2026-05-07 08:15 47.85743 11.34368 3498 ft 131 kts 339°
2026-05-07 08:15 47.86678 11.34547 3496 ft 143 kts 18°
2026-05-07 08:15 47.87376 11.35626 3497 ft 152 kts 62°
2026-05-07 08:15 47.87484 11.37191 3505 ft 155 kts 97°
2026-05-07 08:16 47.87392 11.38800 3505 ft 156 kts 97°
2026-05-07 08:16 47.87313 11.40441 3487 ft 161 kts 97°
2026-05-07 08:16 47.87243 11.42075 3504 ft 157 kts 96°
2026-05-07 08:16 47.87173 11.43713 3502 ft 160 kts 95°
2026-05-07 08:17 47.87101 11.45370 3501 ft 162 kts 95°
2026-05-07 08:17 47.87031 11.47057 3504 ft 163 kts 95°
2026-05-07 08:17 47.86959 11.48730 3504 ft 164 kts 96°
2026-05-07 08:17 47.86886 11.50432 3506 ft 161 kts 95°
2026-05-07 08:18 47.86815 11.52082 3504 ft 159 kts 95°
2026-05-07 08:18 47.86744 11.53706 3504 ft 159 kts 95°
2026-05-07 08:18 47.86673 11.55348 3496 ft 158 kts 96°
2026-05-07 08:18 47.86601 11.56997 3494 ft 157 kts 95°
2026-05-07 08:19 47.86532 11.58595 3497 ft 156 kts 96°
2026-05-07 08:19 47.86460 11.60210 3498 ft 156 kts 95°
2026-05-07 08:19 47.86390 11.61820 3497 ft 155 kts 96°
2026-05-07 08:19 47.86319 11.63414 3495 ft 153 kts 96°
2026-05-07 08:20 47.86248 11.65017 3496 ft 153 kts 97°
2026-05-07 08:20 47.86179 11.66596 3492 ft 155 kts 96°
2026-05-07 08:20 47.86106 11.68200 3492 ft 155 kts 95°
2026-05-07 08:20 47.86035 11.69809 3491 ft 156 kts 95°
2026-05-07 08:21 47.85963 11.71407 3493 ft 153 kts 95°
2026-05-07 08:21 47.85893 11.72981 3494 ft 152 kts 95°
2026-05-07 08:21 47.85822 11.74552 3497 ft 152 kts 95°
2026-05-07 08:21 47.85751 11.76123 3498 ft 153 kts 95°
2026-05-07 08:22 47.85680 11.77701 3504 ft 152 kts 95°
2026-05-07 08:22 47.85609 11.79250 3504 ft 147 kts 96°
2026-05-07 08:22 47.85537 11.80790 3504 ft 150 kts 96°
2026-05-07 08:22 47.85466 11.82337 3507 ft 151 kts 94°
2026-05-07 08:23 47.85394 11.83911 3505 ft 154 kts 95°
2026-05-07 08:23 47.85321 11.85517 3510 ft 156 kts 96°
2026-05-07 08:23 47.85247 11.87139 3502 ft 157 kts 95°
2026-05-07 08:23 47.85174 11.88734 3515 ft 154 kts 95°
2026-05-07 08:24 47.85146 11.90325 3512 ft 153 kts 89°
2026-05-07 08:24 47.85179 11.91904 3506 ft 152 kts 89°
2026-05-07 08:24 47.85216 11.93477 3508 ft 152 kts 89°
2026-05-07 08:24 47.85256 11.95054 3506 ft 152 kts 89°
2026-05-07 08:25 47.85289 11.96603 3511 ft 152 kts 89°
2026-05-07 08:25 47.85334 11.98174 3509 ft 152 kts 89°
2026-05-07 08:25 47.85382 11.99758 3509 ft 154 kts 89°
2026-05-07 08:25 47.85422 12.01350 3511 ft 154 kts 89°
2026-05-07 08:26 47.85482 12.04563 3520 ft 157 kts 89°
2026-05-07 08:26 47.85521 12.06188 3519 ft 157 kts 89°
2026-05-07 08:26 47.85550 12.07801 3519 ft 156 kts 89°
2026-05-07 08:27 47.85582 12.09406 3518 ft 154 kts 89°
2026-05-07 08:27 47.85607 12.10998 3519 ft 153 kts 89°
2026-05-07 08:27 47.85576 12.12581 3518 ft 153 kts 95°
2026-05-07 08:27 47.85523 12.14173 3518 ft 154 kts 94°
2026-05-07 08:28 47.85473 12.15774 3521 ft 155 kts 94°
2026-05-07 08:28 47.85422 12.17373 3520 ft 154 kts 94°
2026-05-07 08:28 47.85363 12.18963 3522 ft 154 kts 94°
2026-05-07 08:28 47.85277 12.20554 3523 ft 154 kts 98°
2026-05-07 08:29 47.85152 12.22143 3523 ft 155 kts 98°
2026-05-07 08:29 47.85036 12.23737 3521 ft 154 kts 98°
2026-05-07 08:29 47.84925 12.25308 3525 ft 153 kts 98°
2026-05-07 08:29 47.84814 12.26882 3529 ft 153 kts 98°
2026-05-07 08:30 47.84704 12.28468 3528 ft 154 kts 98°
2026-05-07 08:30 47.84593 12.30051 3529 ft 154 kts 98°
2026-05-07 08:30 47.84481 12.31636 3526 ft 153 kts 97°
2026-05-07 08:30 47.84372 12.33202 3524 ft 152 kts 98°
2026-05-07 08:31 47.84261 12.34772 3524 ft 152 kts 98°
2026-05-07 08:31 47.84160 12.36339 3522 ft 152 kts 94°
2026-05-07 08:31 47.84214 12.37910 3519 ft 152 kts 86°
2026-05-07 08:31 47.84282 12.39478 3520 ft 152 kts 88°
2026-05-07 08:32 47.84334 12.41053 3517 ft 152 kts 88°
2026-05-07 08:32 47.84380 12.42627 3517 ft 152 kts 88°
2026-05-07 08:32 47.84425 12.44194 3516 ft 151 kts 88°
2026-05-07 08:32 47.84469 12.45747 3519 ft 153 kts 88°
2026-05-07 08:33 47.84514 12.47339 3524 ft 154 kts 88°
2026-05-07 08:33 47.84559 12.48943 3525 ft 155 kts 89°
2026-05-07 08:33 47.84604 12.50540 3525 ft 154 kts 88°
2026-05-07 08:33 47.84649 12.52132 3523 ft 153 kts 89°
2026-05-07 08:34 47.84692 12.53716 3523 ft 153 kts 88°
2026-05-07 08:34 47.84736 12.55300 3524 ft 153 kts 89°
2026-05-07 08:34 47.84780 12.56884 3521 ft 153 kts 89°
2026-05-07 08:34 47.84822 12.58465 3523 ft 153 kts 88°
2026-05-07 08:35 47.84865 12.60040 3524 ft 152 kts 89°
2026-05-07 08:35 47.84908 12.61629 3522 ft 153 kts 89°
2026-05-07 08:35 47.84951 12.63207 3521 ft 152 kts 89°
2026-05-07 08:35 47.84993 12.64782 3524 ft 153 kts 88°
2026-05-07 08:36 47.85035 12.66347 3524 ft 153 kts 89°
2026-05-07 08:36 47.85077 12.67929 3524 ft 153 kts 89°
2026-05-07 08:36 47.85118 12.69510 3522 ft 153 kts 88°
2026-05-07 08:36 47.85159 12.71098 3521 ft 151 kts 89°
2026-05-07 08:37 47.85199 12.72637 3518 ft 150 kts 88°
2026-05-07 08:37 47.85241 12.74203 3517 ft 152 kts 88°
2026-05-07 08:37 47.85282 12.75788 3525 ft 154 kts 88°
2026-05-07 08:37 47.85322 12.77388 3530 ft 155 kts 89°
2026-05-07 08:38 47.85365 12.79006 3535 ft 157 kts 88°
2026-05-07 08:38 47.85404 12.80636 3533 ft 157 kts 90°
2026-05-07 08:38 47.85182 12.82196 3456 ft 157 kts 112°
2026-05-07 08:38 47.84815 12.83780 3215 ft 166 kts 111°
2026-05-07 08:39 47.84450 12.85422 2971 ft 168 kts 111°
2026-05-07 08:39 47.84080 12.87074 2722 ft 169 kts 111°
2026-05-07 08:39 47.83709 12.88727 2450 ft 167 kts 111°
2026-05-07 08:39 47.83354 12.90308 2405 ft 155 kts 110°
2026-05-07 08:40 47.83027 12.91774 2389 ft 144 kts 110°
2026-05-07 08:40 47.82713 12.93161 2391 ft 140 kts 112°
2026-05-07 08:40 47.82383 12.94523 2384 ft 138 kts 122°
2026-05-07 08:40 47.81688 12.95397 2395 ft 131 kts 155°
2026-05-07 08:41 47.80908 12.96092 2405 ft 133 kts 153°
2026-05-07 08:41 47.80100 12.96784 2407 ft 135 kts 155°
2026-05-07 08:41 47.79281 12.97497 2409 ft 135 kts 153°
2026-05-07 08:41 47.78458 12.98185 2410 ft 135 kts 154°
2026-05-07 08:42 47.77635 12.98813 2405 ft 133 kts 157°
2026-05-07 08:42 47.76886 12.99492 2283 ft 121 kts 138°
2026-05-07 08:42 47.76633 13.00563 2100 ft 111 kts 81°
2026-05-07 08:42 47.77114 13.01271 1943 ft 95 kts
2026-05-07 08:43 47.77735 13.01292 1749 ft 84 kts 351°
2026-05-07 08:43 47.78276 13.01067 1534 ft 78 kts 331°
2026-05-07 08:43 47.78735 13.00775 1428 ft 63 kts 332°
2026-05-07 08:43 47.79068 13.00563 1411 ft 33 kts 337°
2026-05-07 08:44 47.79117 13.00380 1414 ft 15 kts 276°
2026-05-07 08:44 47.79147 13.00252 1415 ft 12 kts 322°
2026-05-07 08:44 47.79214 13.00204 1416 ft 11 kts 335°
2026-05-07 08:44 47.79301 13.00148 1417 ft 16 kts 336°
2026-05-07 08:45 47.79347 13.00021 1416 ft 16 kts 244°
2026-05-07 08:45 47.79329 12.99880 1416 ft 14 kts 315°
2026-05-07 08:45 47.79353 12.99807 1416 ft 6 kts 183°
2026-05-07 08:45 47.79339 12.99817 1416 ft 0 kts 146°